[[{"header":{"parameterUnit":"m.s-1","parameterCategory":1,"la1":30.2991,"la2":30.254,"lo1":-89.0895,"lo2":-89.0444,"dy":0.0017,"dx":0.0017,"nx":28,"ny":28,"refTime":"2024-05-28T03:00:00:Z","depth":0,"parameterNumber":2,"parameterNumberName":"U-component_of_WINDS"},"data":[0,0,0,0,0,0,0,0,0,0,0,0,0,0,0,0,0,0,0,0,0,0,0,0,0,0,0,0,0,0,0,0,0,0,0,0,0,0,0,0,0,0,0,0,0,0,0,0,0,0,0,0,0,0,0,0,0,0,2.5369,2.5369,0,2.5372,2.5372,2.5372,2.5279,2.5277,2.5274,2.5272,2.528,2.5283,2.5285,0,0,0,0,0,0,0,0,0,0,0,0,0,2.5293,2.5294,2.5369,2.5369,2.5369,2.5372,2.5372,2.5372,2.5279,2.5276,2.5273,2.5271,2.5279,2.5282,2.5285,0,0,0,0,0,0,0,0,0,0,0,0,0,2.5314,2.5295,2.5369,2.5323,2.5319,2.5372,2.5372,2.5372,2.528,2.5276,2.5273,2.5269,2.5278,2.5282,2.5286,2.5384,0,0,2.5297,2.5299,0,0,0,0,0,0,0,0,2.5313,2.5317,2.533,2.5327,2.5322,2.5321,2.5347,2.5376,2.5281,2.5295,2.5272,2.5267,2.5297,2.5299,2.5308,2.5384,2.5384,2.5298,2.53,2.5302,2.5303,0,0,0,0,0,0,0,2.5311,2.5316,2.537,2.5331,2.5326,2.5305,2.5304,2.5353,2.5317,2.5294,2.5287,2.5288,2.5294,2.5305,2.5307,2.5385,2.5298,2.5301,2.5303,2.5305,2.5544,2.5548,0,0,0,0,0,0,2.5315,2.5315,2.537,2.537,2.5308,2.531,2.5308,2.5325,2.5316,2.5311,2.5291,2.5284,2.53,2.5303,2.5307,2.5422,2.5302,2.5305,2.5307,2.554,2.5545,2.555,0,0,0,0,0,0,2.5314,2.5321,2.537,2.5341,2.5346,2.5315,2.5335,2.5327,2.5337,2.5314,2.5308,2.5308,2.5297,2.5302,2.5366,2.5421,2.5307,2.531,2.5535,2.5542,2.5547,2.5653,0,0,0,0,0,0,2.5312,2.5321,2.5356,2.5342,2.5348,2.5426,2.5338,2.533,2.5343,2.5334,2.5328,2.5324,2.5294,2.536,2.5369,2.5425,2.5313,2.553,2.5538,2.5545,2.5644,2.5662,2.5677,0,0,0,0,0,2.531,2.5386,2.5358,2.5365,2.539,2.5429,2.5433,2.5395,2.5348,2.5384,2.537,2.5324,2.5414,2.5368,2.5377,2.5434,2.5526,2.5536,2.5545,2.5637,2.5658,2.5677,0,0,0,0,0,0,2.5408,2.5383,2.5352,2.5426,2.543,2.5414,2.5457,2.5419,2.5438,2.5429,2.5384,2.5384,2.5455,2.5451,2.54,2.553,2.5462,2.5474,2.5529,2.5549,2.5566,2.5565,2.5316,0,0,0,0,0,2.5438,2.547,2.5448,2.5515,2.5519,2.5489,2.5504,2.5475,2.5479,2.5481,2.5471,2.5478,2.5508,2.5529,2.5555,2.5644,2.5643,2.5689,2.5705,2.5718,2.5729,2.5777,2.5798,2.558,2.558,2.5579,0,0,2.5501,2.5491,2.5514,2.5535,2.5535,2.5571,2.5491,2.5532,2.5559,2.5488,2.5546,2.554,2.5546,2.5623,2.5656,2.5622,2.5789,2.573,2.5741,2.5744,2.5789,2.581,2.5828,2.5586,2.5585,2.5584,0,0,2.5633,2.5629,2.5685,2.5687,2.5688,2.5668,2.5682,2.5672,2.5664,2.5723,2.567,2.5704,2.5756,2.5762,2.5772,2.5912,2.5871,2.5922,2.6007,2.6055,2.6072,2.6087,2.6138,2.6156,2.5933,2.5933,2.5933,0,2.5711,2.5761,2.572,2.5765,2.5777,2.5713,2.5772,2.5776,2.5787,2.5798,2.5759,2.5824,2.5823,2.5902,2.5936,2.5946,2.5963,2.5921,2.6073,2.6087,2.6101,2.6148,2.6167,2.5939,2.5938,2.5938,2.5937,0,2.5858,2.5894,2.594,2.5951,2.5968,2.602,2.5989,2.6012,2.5983,2.5968,2.603,2.6027,2.6052,2.6069,2.6042,2.6145,2.6124,2.608,2.6011,2.6128,2.6172,2.619,2.5948,2.5946,2.5944,2.5942,0,0,2.6049,2.6038,2.6055,2.606,2.6058,2.6087,2.6138,2.6161,2.6182,2.6193,2.6236,2.6283,2.6243,2.6255,2.6228,2.627,2.6382,2.6221,2.6221,2.6251,2.6498,2.653,2.6552,2.6356,2.6359,2.6362,2.6498,0,2.6178,2.626,2.6226,2.6314,2.6348,2.6291,2.6335,2.6341,2.6329,2.6358,2.6347,2.6381,2.6325,2.6332,2.6371,2.636,2.6431,2.635,2.6397,2.6399,2.6396,2.6575,2.6609,2.6736,2.6514,2.6517,2.6519,0,2.6337,2.6354,2.6444,2.6438,2.6452,2.6492,2.6512,2.654,2.6547,2.6536,2.6551,2.6515,2.6568,2.65,2.6573,2.6519,2.6537,2.6535,2.6539,2.6541,2.6465,2.6582,2.6776,2.6796,2.6546,2.6544,2.6542,0,2.6468,2.6513,2.6573,2.6579,2.6574,2.6604,2.6604,2.6607,2.6624,2.6643,2.6654,2.668,2.6694,2.6716,2.669,2.6643,2.6768,2.6697,2.6761,2.6762,2.6789,2.6787,2.6989,2.6802,2.6801,2.6801,2.6801,0,2.6614,2.6672,2.6632,2.6669,2.6733,2.6696,2.6761,2.6755,2.6758,2.6795,2.6749,2.6785,2.6748,2.6782,2.6763,2.6827,2.6834,2.6828,2.6822,2.6831,2.6832,2.6841,2.6832,2.6806,2.6805,2.6804,2.6803,0,2.677,2.6745,2.6807,2.6798,2.6797,2.6845,2.6838,2.6874,2.686,2.6908,2.6917,2.6896,2.6934,2.691,2.6949,2.6936,2.702,2.7002,2.7017,2.7012,2.7077,2.7071,2.7291,2.7318,2.7114,2.7116,2.7118,0,2.6864,2.6907,2.6903,2.6923,2.6926,2.696,2.6977,2.6944,2.6964,2.6977,2.7012,2.7045,2.7069,2.7133,2.7123,2.7153,2.7135,2.7211,2.714,2.7149,2.7137,2.7134,2.7139,2.7224,2.7227,2.7229,2.723,0,2.7034,2.702,2.7046,2.7069,2.7091,2.7108,2.7122,2.7142,2.7109,2.7135,2.7172,2.7191,2.7231,2.7266,2.7292,2.7294,2.7258,2.7253,2.7269,2.7279,2.7286,2.7284,2.7055,2.7248,2.7246,2.7245,2.7244,2.7243,2.7161,2.7197,2.7201,2.7232,2.7239,2.7253,2.7286,2.7278,2.7307,2.7336,2.7315,2.736,2.7369,2.74,2.7408,2.7444,2.7414,2.7438,2.7444,2.745,2.7459,2.7281,2.7449,2.7449,2.7448,2.7448,2.7447,0,2.7328,2.7328,2.7358,2.7378,2.7404,2.7367,2.7381,2.7405,2.7445,2.7456,2.7481,2.7526,2.756,2.7554,2.7586,2.7616,2.7601,2.7626,2.7623,2.7624,2.7484,2.7466,2.7638,2.7638,2.7638,2.7638,2.7638,2.7638,2.7418,2.7478,2.7466,2.7531,2.7531,2.7573,2.7584,2.7599,2.7607,2.7658,2.7686,2.7681,2.7686,2.7718,2.7749,2.7747,2.7761,2.7792,2.7784,2.7653,2.7634,2.7616,2.7599,2.7796,2.7796,2.7921,2.7922,2.7923]},{"header":{"parameterUnit":"m.s-1","parameterCategory":1,"la1":30.2991,"la2":30.254,"lo1":-89.0895,"lo2":-89.0444,"dy":0.0017,"dx":0.0017,"nx":28,"ny":28,"refTime":"2024-05-28T03:00:00:Z","depth":0,"parameterNumber":3,"parameterNumberName":"V-component_of_WINDS"},"data":[0,0,0,0,0,0,0,0,0,0,0,0,0,0,0,0,0,0,0,0,0,0,0,0,0,0,0,0,0,0,0,0,0,0,0,0,0,0,0,0,0,0,0,0,0,0,0,0,0,0,0,0,0,0,0,0,0,0,4.5735,4.5737,0,4.5899,4.5901,4.5903,4.5935,4.5934,4.5933,4.5931,4.609,4.6095,4.6101,0,0,0,0,0,0,0,0,0,0,0,0,0,4.5441,4.5446,4.5735,4.5737,4.5739,4.5899,4.5901,4.5904,4.5935,4.5934,4.5932,4.5931,4.6088,4.6095,4.6101,0,0,0,0,0,0,0,0,0,0,0,0,0,4.5583,4.5448,4.5735,4.5775,4.578,4.5899,4.5901,4.5904,4.5936,4.5934,4.5932,4.593,4.6086,4.6094,4.6102,4.619,0,0,4.6127,4.613,0,0,0,0,0,0,0,0,4.5575,4.5593,4.5767,4.5772,4.5778,4.5895,4.5856,4.6,4.5936,4.5876,4.5931,4.5929,4.6026,4.6039,4.6074,4.6197,4.6204,4.6128,4.6132,4.6136,4.6138,0,0,0,0,0,0,0,4.5565,4.5587,4.58,4.5769,4.5776,4.5781,4.58,4.5883,4.5959,4.5881,4.5884,4.5904,4.6029,4.6066,4.6078,4.6206,4.6127,4.6135,4.614,4.6143,4.641,4.6412,0,0,0,0,0,0,4.5549,4.5578,4.5795,4.5805,4.567,4.5788,4.5809,4.5859,4.5959,4.5972,4.5905,4.5904,4.6053,4.6068,4.6083,4.6193,4.6136,4.6143,4.6148,4.6408,4.6411,4.6413,0,0,0,0,0,0,4.5543,4.5568,4.5788,4.5692,4.5721,4.5796,4.5852,4.5864,4.5901,4.5977,4.599,4.5929,4.6052,4.6072,4.6164,4.6199,4.6147,4.6154,4.6405,4.6409,4.6412,4.6413,0,0,0,0,0,0,4.5534,4.5566,4.5602,4.5693,4.5726,4.5869,4.5854,4.5868,4.5916,4.5917,4.6003,4.6015,4.6052,4.6152,4.6172,4.6209,4.6161,4.6402,4.6407,4.6411,4.641,4.6416,4.6421,0,0,0,0,0,4.5523,4.5593,4.5604,4.5629,4.5773,4.5871,4.5889,4.5932,4.5918,4.5954,4.6003,4.6013,4.6192,4.6161,4.6184,4.6224,4.64,4.6406,4.641,4.6408,4.6415,4.6421,0,0,0,0,0,0,4.5501,4.5606,4.5618,4.5721,4.5787,4.5876,4.5922,4.5938,4.6007,4.6005,4.6053,4.6072,4.6161,4.6202,4.6165,4.6314,4.6295,4.6305,4.6285,4.6292,4.6298,4.6286,4.6168,0,0,0,0,0,4.5508,4.5582,4.5668,4.575,4.5783,4.5847,4.5891,4.5919,4.5988,4.6015,4.6071,4.6135,4.6206,4.6251,4.632,4.6416,4.6435,4.6455,4.646,4.6465,4.6472,4.6526,4.6536,4.643,4.643,4.643,0,0,4.5523,4.559,4.5633,4.5747,4.5802,4.5874,4.587,4.5946,4.6,4.6026,4.6117,4.616,4.6234,4.6329,4.6373,4.6365,4.6506,4.6471,4.6474,4.648,4.6532,4.6542,4.6551,4.6433,4.6432,4.6432,0,0,4.5588,4.5646,4.5721,4.5777,4.5861,4.5903,4.5921,4.6008,4.6039,4.6132,4.6153,4.6215,4.6336,4.6389,4.6431,4.6517,4.6528,4.6538,4.6566,4.6618,4.6626,4.6634,4.6664,4.6675,4.6545,4.6545,4.6545,0,4.5595,4.5708,4.5757,4.5834,4.5883,4.5913,4.5988,4.6038,4.6138,4.6171,4.6161,4.6315,4.6367,4.6474,4.6495,4.6529,4.6549,4.6528,4.6622,4.663,4.6637,4.6667,4.6678,4.6546,4.6546,4.6546,4.6546,0,4.5713,4.5791,4.5841,4.5941,4.5996,4.6071,4.6128,4.6177,4.62,4.6243,4.6336,4.64,4.6484,4.6511,4.6533,4.6621,4.6614,4.6612,4.6594,4.6648,4.6676,4.6688,4.6547,4.6547,4.6546,4.6546,0,0,4.5767,4.5896,4.5913,4.5959,4.6055,4.6114,4.6189,4.6274,4.6315,4.6383,4.6447,4.6549,4.6549,4.6597,4.6625,4.667,4.6734,4.6663,4.6666,4.6675,4.6836,4.6837,4.6849,4.6742,4.6745,4.6747,4.6829,0,4.5844,4.5984,4.603,4.6145,4.6217,4.6247,4.6312,4.6376,4.6418,4.6482,4.6527,4.6599,4.6593,4.6623,4.6669,4.6717,4.6767,4.6711,4.68,4.6803,4.6781,4.6864,4.6866,4.6941,4.6841,4.6843,4.6844,0,4.5951,4.6026,4.6149,4.6236,4.6268,4.6327,4.6408,4.6471,4.6543,4.657,4.6625,4.6649,4.6727,4.6704,4.6811,4.6772,4.6811,4.684,4.6844,4.6854,4.6827,4.6876,4.6966,4.6977,4.6862,4.6861,4.686,0,4.5979,4.6109,4.62,4.6239,4.6342,4.6383,4.6427,4.6499,4.6547,4.6617,4.6648,4.6725,4.6767,4.6825,4.6869,4.6848,4.6971,4.6952,4.6995,4.6994,4.7019,4.7017,4.7116,4.7044,4.7043,4.7043,4.7043,0,4.606,4.6134,4.6214,4.627,4.6354,4.6405,4.6485,4.653,4.6594,4.6657,4.6686,4.6744,4.6799,4.6864,4.6898,4.6981,4.6999,4.7022,4.703,4.702,4.7017,4.7046,4.7042,4.7046,4.7046,4.7045,4.7044,0,4.6104,4.6162,4.6263,4.6354,4.6379,4.6436,4.6513,4.6567,4.661,4.669,4.6711,4.6778,4.6856,4.6906,4.7004,4.7027,4.7118,4.7125,4.7095,4.7099,4.7139,4.7135,4.7261,4.728,4.7193,4.7194,4.7195,0,4.6152,4.6211,4.6309,4.6356,4.6402,4.6475,4.6526,4.6577,4.6628,4.6716,4.6759,4.684,4.6907,4.7029,4.7085,4.716,4.7168,4.7207,4.718,4.7168,4.717,4.7166,4.7172,4.7212,4.7212,4.7213,4.7213,0,4.6231,4.6257,4.633,4.6414,4.6474,4.6542,4.6609,4.6644,4.6707,4.6762,4.6844,4.6896,4.6998,4.7078,4.7158,4.72,4.7217,4.7222,4.7236,4.7226,4.7207,4.7218,4.7108,4.7219,4.7218,4.7218,4.7217,4.7217,4.6279,4.6333,4.6411,4.6492,4.6549,4.6611,4.6667,4.6719,4.679,4.6879,4.6904,4.699,4.706,4.7171,4.7215,4.7281,4.7276,4.7296,4.7301,4.7305,4.7306,4.7196,4.7295,4.7295,4.7295,4.7295,4.7295,0,4.636,4.6412,4.6486,4.6581,4.6645,4.6658,4.6733,4.6784,4.6861,4.6927,4.6994,4.7087,4.7165,4.7227,4.7306,4.7347,4.7356,4.7366,4.7363,4.7373,4.7306,4.7286,4.7357,4.7357,4.7357,4.7357,4.7357,4.7357,4.6409,4.6501,4.6537,4.6657,4.6708,4.6795,4.6837,4.6894,4.6947,4.7052,4.7118,4.716,4.7224,4.7308,4.7379,4.7395,4.7423,4.7431,4.7448,4.7384,4.7377,4.7371,4.7353,4.7436,4.7436,4.751,4.7511,4.7511]}]]